Location: Frydek-Mistek
(49.6830°N, 18.3330°E)
Time: 09:32:33
(UTC+01:00)

ISS - Visible Passes

Search period start: 30 November 2023 00:00
Search period end: 10 December 2023 00:00
Orbit: 416 x 417 km, 51.6° (Epoch: 30 November)

Date Brightness Start Highest point End Pass type
(mag) Time Alt. Az. Time Alt. Az. Time Alt. Az.
30 Nov -3.8 17:30:10 10° WNW 17:33:32 89° SW 17:34:45 37° ESE visible
30 Nov -0.4 19:07:13 10° W 19:07:41 13° W 19:07:41 13° W visible
01 Dec -3.8 16:41:46 10° WNW 16:45:08 74° NNE 16:48:29 10° E visible
01 Dec -2.3 18:18:38 10° W 18:21:30 34° SW 18:21:30 34° SW visible
02 Dec -3.0 17:30:07 10° WNW 17:33:23 50° SSW 17:35:26 20° SE visible
03 Dec -3.5 16:41:36 10° WNW 16:44:57 71° SSW 16:48:17 10° ESE visible
03 Dec -1.2 18:18:59 10° W 18:21:15 17° SW 18:22:28 14° SSW visible
04 Dec -1.6 17:30:05 10° W 17:32:54 25° SW 17:35:43 10° SSE visible
05 Dec -2.2 16:41:20 10° W 16:44:28 37° SSW 16:47:35 10° SE visible
06 Dec -0.5 17:30:43 10° WSW 17:32:04 12° SW 17:33:25 10° SSW visible
07 Dec -0.7 16:41:14 10° W 16:43:38 18° SW 16:46:00 10° S visible
